VIR127 EGCC-KJFK

Flight info

Callsign VIR127
Flight time N/A
Altitude 38000
Route EKLAD UY53 WAL L10 PENIL M144 BAGSO DCT DOGAL/M085F380 NATC NEEKO/N0497F400 N622E TAFFY DCT ENE PARCH4
Aircraft A35K/H-SDE2E3GHIJ3J4J5LM1ORWXY/LB1D1

Departure

Time 2026-05-04 16:04
Airport Manchester Airport (EGCC)

Arrival

Time N/A
Airport John F. Kennedy International Airport (KJFK)
Time Latitude Longitude Altitude Speed Heading
2026-05-04 15:11 53.36701 -2.28476 261 ft 0 kts 135°
2026-05-04 15:49 53.36712 -2.28494 262 ft 4 kts 135°
2026-05-04 15:49 53.36731 -2.28525 263 ft 4 kts 135°
2026-05-04 15:50 53.36746 -2.28552 265 ft 4 kts 147°
2026-05-04 15:50 53.36766 -2.28555 266 ft 4 kts 214°
2026-05-04 15:50 53.36785 -2.28527 263 ft 4 kts 224°
2026-05-04 15:50 53.36804 -2.28496 265 ft 4 kts 224°
2026-05-04 15:51 53.36811 -2.28485 265 ft 0 kts 224°
2026-05-04 15:52 53.36809 -2.28487 265 ft 1 kts 223°
2026-05-04 15:52 53.36799 -2.28505 265 ft 4 kts 224°
2026-05-04 15:52 53.36751 -2.28584 264 ft 14 kts 225°
2026-05-04 15:53 53.36676 -2.28709 261 ft 16 kts 224°
2026-05-04 15:53 53.36593 -2.28758 261 ft 12 kts 179°
2026-05-04 15:53 53.36531 -2.28692 261 ft 18 kts 131°
2026-05-04 15:53 53.36419 -2.28465 261 ft 26 kts 119°
2026-05-04 15:54 53.36311 -2.28229 261 ft 26 kts 134°
2026-05-04 15:54 53.36179 -2.28009 261 ft 27 kts 137°
2026-05-04 15:54 53.36111 -2.27914 261 ft 6 kts 142°
2026-05-04 15:54 53.36045 -2.27827 261 ft 24 kts 142°
2026-05-04 15:55 53.35860 -2.27726 260 ft 28 kts 171°
2026-05-04 15:55 53.35720 -2.27635 254 ft 7 kts 156°
2026-05-04 15:55 53.35657 -2.27569 252 ft 16 kts 142°
2026-05-04 15:55 53.35590 -2.27479 250 ft 3 kts 141°
2026-05-04 15:56 53.35590 -2.27478 251 ft 0 kts 141°
2026-05-04 15:56 53.35579 -2.27465 251 ft 7 kts 142°
2026-05-04 15:56 53.35489 -2.27344 254 ft 7 kts 141°
2026-05-04 15:57 53.35452 -2.27295 254 ft 17 kts 140°
2026-05-04 15:57 53.35353 -2.27203 250 ft 16 kts 172°
2026-05-04 15:57 53.35277 -2.27250 246 ft 11 kts 227°
2026-05-04 15:57 53.35219 -2.27358 244 ft 14 kts 230°
2026-05-04 15:58 53.35170 -2.27454 242 ft 0 kts 230°
2026-05-04 15:58 53.35166 -2.27462 241 ft 4 kts 229°
2026-05-04 15:59 53.35131 -2.27495 239 ft 8 kts 188°
2026-05-04 15:59 53.35063 -2.27486 239 ft 0 kts 172°
2026-05-04 16:02 53.35031 -2.27479 236 ft 8 kts 172°
2026-05-04 16:02 53.34970 -2.27462 233 ft 5 kts 179°
2026-05-04 16:02 53.34904 -2.27540 231 ft 0 kts 230°
2026-05-04 16:03 53.34902 -2.27544 230 ft 5 kts 230°
2026-05-04 16:04 53.34688 -2.27983 237 ft 98 kts 230°
2026-05-04 16:04 53.33357 -2.30645 1611 ft 168 kts 231°
2026-05-04 16:04 53.32593 -2.32382 2282 ft 207 kts 242°
2026-05-04 16:05 53.32349 -2.34870 2889 ft 229 kts 276°
2026-05-04 16:05 53.32672 -2.37619 3278 ft 249 kts 284°
2026-05-04 16:05 53.32592 -2.43452 4591 ft 260 kts 255°
2026-05-04 16:06 53.32077 -2.46357 4936 ft 261 kts 253°
2026-05-04 16:06 53.30631 -2.54130 4999 ft 264 kts 253°
2026-05-04 16:07 53.29908 -2.58031 4995 ft 265 kts 253°
2026-05-04 16:07 53.28267 -2.66921 6816 ft 267 kts 253°
2026-05-04 16:08 53.27717 -2.69909 7569 ft 270 kts 254°
2026-05-04 16:08 53.26067 -2.79067 9833 ft 277 kts 259°
2026-05-04 16:09 53.26651 -2.85473 10664 ft 303 kts 297°
2026-05-04 16:09 53.29152 -2.91651 11156 ft 338 kts 307°
2026-05-04 16:10 53.32154 -2.97926 12288 ft 352 kts 308°
2026-05-04 16:11 53.36650 -3.07664 13076 ft 355 kts 306°
2026-05-04 16:11 53.38130 -3.10982 13075 ft 357 kts 306°
2026-05-04 16:12 53.43698 -3.19332 14105 ft 365 kts 329°
2026-05-04 16:12 53.49367 -3.27892 15724 ft 372 kts 303°
2026-05-04 16:13 53.51971 -3.35458 16817 ft 380 kts 297°
2026-05-04 16:13 53.54413 -3.43470 17895 ft 387 kts 297°
2026-05-04 16:14 53.56912 -3.51561 18859 ft 395 kts 298°
2026-05-04 16:14 53.59503 -3.59756 19750 ft 402 kts 299°
2026-05-04 16:15 53.61948 -3.73427 21094 ft 414 kts 277°
2026-05-04 16:16 53.62426 -3.83116 21986 ft 420 kts 274°
2026-05-04 16:16 53.62934 -3.98063 23253 ft 431 kts 274°
2026-05-04 16:17 53.63312 -4.08200 23993 ft 438 kts 275°
2026-05-04 16:18 53.63908 -4.23714 25139 ft 444 kts 275°
2026-05-04 16:18 53.64103 -4.28897 25358 ft 452 kts 275°
2026-05-04 16:19 53.64705 -4.45215 25819 ft 475 kts 275°
2026-05-04 16:19 53.65109 -4.56456 26118 ft 490 kts 275°
2026-05-04 16:20 53.65702 -4.73907 26763 ft 504 kts 275°
2026-05-04 16:20 53.66093 -4.85799 27327 ft 509 kts 275°
2026-05-04 16:21 53.66673 -5.03764 28200 ft 516 kts 275°
2026-05-04 16:22 53.67049 -5.15920 28757 ft 520 kts 275°
2026-05-04 16:22 53.67579 -5.34144 29779 ft 518 kts 275°
2026-05-04 16:23 53.68076 -5.52300 30703 ft 518 kts 275°
2026-05-04 16:24 53.69854 -5.76609 30942 ft 524 kts 280°
2026-05-04 16:25 53.70792 -5.88735 31598 ft 516 kts 279°
2026-05-04 16:26 53.72464 -6.12624 32996 ft 511 kts 278°
2026-05-04 16:26 53.73664 -6.30443 34011 ft 509 kts 278°
2026-05-04 16:27 53.74451 -6.42309 34654 ft 506 kts 278°
2026-05-04 16:28 53.75599 -6.59944 35539 ft 503 kts 278°
2026-05-04 16:28 53.76721 -6.77584 36401 ft 501 kts 277°
2026-05-04 16:29 53.78164 -7.00920 37452 ft 498 kts 277°
2026-05-04 16:30 53.79216 -7.18398 37814 ft 500 kts 277°
2026-05-04 16:31 53.79903 -7.30067 37885 ft 501 kts 277°
2026-05-04 16:32 53.81907 -7.65298 37888 ft 502 kts 277°
2026-05-04 16:33 53.83082 -7.86859 37888 ft 502 kts 276°
2026-05-04 16:34 53.84557 -8.14989 37893 ft 502 kts 276°
2026-05-04 16:35 53.86321 -8.50480 37894 ft 502 kts 276°